Regional Weather Roundup
Issued by NWS Cleveland, OH

Home | Current Version | Previous Version | Graphics & Text | Print | Product List | Glossary On
Versions: 1 2 3 4 5 6 7 8 9 10 11 12 13 14 15 16 17 18 19 20 21 22 23 24 25 26 27 28 29 30 31 32 33 34 35 36 37 38 39 40 41 42 43 44 45 46 47 48 49 50
000
ASUS41 KCLE 262212
RWRCLE
OHIO REGIONAL WEATHER ROUNDUP
NATIONAL WEATHER SERVICE WILMINGTON, OH
600 PM EDT MON JUN 26 2017

NOTE: "FAIR" INDICATES FEW OR NO CLOUDS BELOW 12,000 FEET WITH NO
SIGNIFICANT WEATHER AND/OR OBSTRUCTIONS TO VISIBILITY.

OHZ001>008-015>018-024>027-034-035-043-044-262300-
   NORTHWEST OHIO

CITY           SKY/WX    TMP DP  RH WIND       PRES   REMARKS
DEFIANCE       LGT RAIN  57  50  77 VRB3      30.02S
FINDLAY        FAIR      69  45  41 W10       30.00F
TOLEDO EXPRESS CLOUDY    68  43  40 W5        29.98F
TOLEDO EXEC    PTSUNNY   69  45  41 SW12      29.99F
LIMA           FAIR      70  47  43 W15G24    30.02F
$$

OHZ009>014-019>023-028>033-038-089-262300-
   NORTHEAST OHIO

CITY           SKY/WX    TMP DP  RH WIND       PRES   REMARKS
CLE-HOPKINS    FAIR      73  47  39 W12       30.02F
CLE-LAKEFRONT  PTSUNNY   70  49  47 W14       29.99F
CUY CO. ARPT   PTSUNNY   70  48  46 W10       30.01F
LORAIN-ELYRIA  FAIR      69  42  37 W14G22    30.01F
ASHTABULA      FAIR      67  45  45 W13G23    30.01S
AKRON-CANTON   PTSUNNY   71  43  36 W15G22    30.03S
WOOSTER        PTSUNNY   68  46  45 W8        30.03F
MANSFIELD      PTSUNNY   68  44  42 W12G18    30.03F
YOUNGSTOWN     PTSUNNY   68  49  50 W8        30.01F
$$

OHZ042-051>053-060>062-070>072-077>081-262300-
  SOUTHWEST OHIO

CITY           SKY/WX    TMP DP  RH WIND       PRES   REMARKS
CINC-COVINGTON PTSUNNY   71  50  47 W12       30.09F
CINC-LUNKEN    PTSUNNY   72  50  45 W14       30.08F
HAMILTON       CLOUDY    72  53  51 VRB5      30.08F
DAYTON         LGT RAIN  67  48  50 SW8       30.07F
WRIGHT-PAT AFB LGT RAIN  67  53  59 SW10      30.06F
DAYTON GENERAL FAIR      71  47  42 W12       30.06F
WILMINGTON     CLOUDY    71  48  43 W10       30.06F
$$

OHZ036-037-039>041-045>050-054>059-063>069-073>076-082>088-262300-
  CENTRAL AND SOUTHEAST OHIO

CITY           SKY/WX    TMP DP  RH WIND       PRES   REMARKS
COLUMBUS       PTSUNNY   71  46  40 SW10      30.05F
OSU AIRPORT    CLOUDY    68  48  48 W9        30.05F
BOLTON FIELD   CLOUDY    70  46  43 W7        30.07F
RICKENBACK AFB PTSUNNY   70  47  42 W10       30.05F
NEWARK         FAIR      73  42  32 W13G20    30.05F
MARION         PTSUNNY   69  44  40 W13       30.04F
LANCASTER      FAIR      70  47  43 W8G16     30.07F
ZANESVILLE     PTSUNNY   69  47  45 W8        30.06F
NEW PHILLY     FAIR      72  46  39 W10       30.05S
$$




USA.gov is the U.S. government's official web portal to all federal, state and local government web resources and services.